Location: LDNL
(36.4545°S, 141.6685°E)
Time: 22:32:47
(UTC+11:00)

Vanguard 1 Rocket - Visible Passes

Search period start: 19 January 2022 00:00
Search period end: 29 January 2022 00:00
Orbit: 651 x 4224 km, 34.3° (Epoch: 18 January)

Date Brightness Start Highest point End Pass type
(mag) Time Alt. Az. Time Alt. Az. Time Alt. Az.
19 Jan 9.7 02:11:29 22° ENE 02:11:29 22° ENE 02:17:23 10° E visible
19 Jan 8.9 04:28:45 30° WNW 04:34:02 71° NNE 04:51:08 10° E visible
20 Jan 8.5 03:21:21 50° N 03:22:19 52° NNE 03:35:26 10° E visible
20 Jan 9.4 05:39:07 10° W 05:49:14 82° N 06:09:46 10° E visible
21 Jan 9.4 02:13:58 27° ENE 02:13:58 27° ENE 02:20:19 10° E visible
21 Jan 8.8 04:31:14 28° WNW 04:36:38 76° NNE 04:53:29 10° E visible
22 Jan 8.2 03:23:51 58° N 03:24:49 61° NNE 03:37:53 10° E visible
22 Jan 9.4 05:42:00 10° W 05:51:54 82° N 06:12:02 10° E visible
23 Jan 9.2 02:16:30 31° ENE 02:16:30 31° ENE 02:23:03 10° E visible
23 Jan 8.8 04:33:46 26° WNW 04:39:20 79° N 04:55:50 10° E visible
24 Jan 8.1 03:26:25 63° NNW 03:27:27 68° NNE 03:40:20 10° E visible
24 Jan 9.3 05:44:55 10° W 05:54:35 79° N 06:14:14 10° ENE visible
25 Jan 9.0 02:19:06 35° ENE 02:19:06 35° ENE 02:25:41 10° E visible
25 Jan 8.7 04:36:22 24° W 04:42:04 81° N 04:58:11 10° E visible
26 Jan 8.0 03:29:04 65° NW 03:30:10 74° N 03:42:47 10° E visible
26 Jan 9.3 05:47:48 10° W 05:57:14 75° N 06:16:21 10° ENE visible
27 Jan 8.9 02:21:48 37° E 02:21:48 37° E 02:28:18 10° E visible
27 Jan 8.6 04:39:04 23° W 04:44:48 79° N 05:00:31 10° E visible
28 Jan 10.2 01:14:34 10° E 01:14:34 10° E 01:14:35 10° E visible
28 Jan 7.9 03:31:51 67° NW 03:32:56 78° N 03:45:15 10° E visible
28 Jan 9.2 05:50:43 10° W 05:59:54 68° NNW 06:18:20 10° ENE visible
